Tracking 29892 objects as of 21-Nov-2024
HD Live streaming from Space Station
objects crossing your sky now

ONEWEB-0156

Track ONEWEB-0156 now!
10-day predictions
ONEWEB-0156 is classified as:


NORAD ID: 48052
Int'l Code: 2021-025L
Perigee: 1,215.7 km
Apogee: 1,218.1 km
Inclination: 87.9 °
Period: 109.6 minutes
Semi major axis: 7587 km
RCS: Unknown
Launch date: March 25, 2021
Source: United States (US)
Launch site: VOSTOCHNY COSMODROME (VOSTO)
Your satellite tracking list
Your tracking list is empty




NASA's NSSDC Master Catalog

Two Line Element Set (TLE):
1 48052U 21025L   24325.27243505 -.00000092  00000-0 -28614-3 0  9990
2 48052  87.8922  74.3649 0001629 103.5138 256.6173 13.13469517178230
Source of the keplerian elements: AFSPC